Regional Weather Roundup
Issued by NWS Kansas City/Pleasant Hill, MO

Home | Current Version | Previous Version | Text Only | Print | Product List | Glossary On
Versions: 1 2 3 4 5 6 7 8 9 10 11 12 13 14 15 16 17 18 19 20 21 22 23 24 25 26 27
000
ASUS43 KEAX 221510
RWREAX

WEATHER ROUNDUP FOR EASTERN KANSAS AND NORTHWEST MISSOURI
NATIONAL WEATHER SERVICE KANSAS CITY/PLEASANT HILL MO
1000 AM CDT WED MAR 22 2017

KSZ040-057-103>105-MOZ028-029-037-043-221600-
...KANSAS CITY METROPOLITAN AREA...

CITY           SKY/WX    TMP DP  RH WIND       PRES   REMARKS
K.C. INTL      PTSUNNY   41  22  46 E15       30.36F WCI  33
K.C. DOWNTOWN  MOSUNNY   43  22  43 E15       30.35F
LEES SUMMIT    CLOUDY    42  23  46 E16       30.35F WCI  34
OLATHE - IXD   CLOUDY    44  22  41 E15G23    30.33F
OLATHE - OJC   CLOUDY    43  24  47 E13       30.33F
LAWRENCE       CLOUDY    46  23  40 NE14      30.34S

$$

MOZ001>008-011>017-020>025-030>033-038>040-044>046-053-054-221600-
...NORTHERN AND CENTRAL MISSOURI...

CITY           SKY/WX    TMP DP  RH WIND       PRES   REMARKS
ST. JOSEPH     CLOUDY    41  22  46 E13       30.38F WCI  34
MOSBY          SUNNY     41  23  48 E14       30.39F WCI  33
WARRENSBURG    MOSUNNY   43  25  49 E13       30.39F
WHITEMAN AFB   PTSUNNY   44  26  49 E12G17    30.39S
CLINTON        PTSUNNY   45  27  49 E12       30.38S
SEDALIA        MOSUNNY   43  28  55 E15       30.41R
WARSAW         NOT AVBL
CHILLICOTHE      N/A     39  26  59 E10       30.45F WCI  32
KIRKSVILLE     CLOUDY    37  27  67 E12       30.47S WCI  29

$$

MOZ041-047>049-056>058-063>065-088>090-097-221600-
...EASTERN AND SOUTHERN MISSOURI...

CITY           SKY/WX    TMP DP  RH WIND       PRES   REMARKS
ST. LOUIS INTL MOSUNNY   41  24  51 E17       30.49R WCI  32
SPIRIT OF STL  PTSUNNY   39  24  55 E16       30.48S WCI  30
COLUMBIA       MOSUNNY   41  28  60 E17G25    30.42S WCI  32
JEFFERSON CITY MOSUNNY   44  29  55 E12       30.43R
ROLLA          CLOUDY    42  28  57 E17G24    30.39R WCI  34
OSAGE BEACH    CLOUDY   N/A N/A N/A E12       30.39R
SPRINGFIELD    CLOUDY    48  27  44 E17G25    30.31S
BRANSON        CLOUDY    45  36  70 E10G20    30.33R
JOPLIN         CLOUDY    50  31  48 E14G22    30.29S
WEST PLAINS    MOSUNNY   49  32  52 E13G21    30.35R

$$

IAZ060-094-KSZ022-034>040-054-083-096-NEZ052-066-093-221600-
...KANSAS...SOUTHEAST NEBRASKA AND IOWA...

CITY           SKY/WX    TMP DP  RH WIND       PRES   REMARKS
TOPEKA         MOSUNNY   45  24  43 E16       30.34R
MANHATTAN      SUNNY     44  25  47 E14       30.35S
EMPORIA        SUNNY     47  25  42 E18G26    30.29R
CHANUTE        CLOUDY    48  27  44 E17G23    30.27F
WICHITA        CLOUDY    49  26  41 E16       30.25F
OMAHA          LGT RAIN  34  21  59 SE12      30.42F WCI  25
LINCOLN        MOSUNNY   39  20  46 SE10      30.41F WCI  32
FALLS CITY     CLOUDY    39  20  46 E10       30.39R WCI  32
LAMONI         CLOUDY    35  25  66 E10G17    30.43S WCI  27
DES MOINES     PTSUNNY   34  23  64 SE14G22   30.49S WCI  25

$$





USA.gov is the U.S. government's official web portal to all federal, state and local government web resources and services.